Weather in Chayka

Bulgaria     43°04′46″N   27°25′44″E
temp.,
°C
wind,
m/s
gust,
m/s
humid.,
%
clouds,
%
prec.,
mm/h
press.,
hPa
HPBL,
m
11 may, tue
tue1100:00+6s11754 0.0 102310
03:00+5s11790 0.0 102210
06:00+5s11820 0.0 102110
09:00+13se12550 0.0 1021458
12:00+17ese33390 0.0 10201084
15:00+18ese43360 0.0 10181204
18:00+16ese44470 0.0 1017647
21:00+9se22720 0.0 101711
12 may, wed
wed1200:00+7ssw11690 0.0 101711
03:00+6sw11620 0.0 101410
06:00+6sw11600 0.0 101310
09:00+14sse12440 0.0 1012303
12:00+19sse34390 0.0 10111122
15:00+20sse44400 0.0 10101313
18:00+17se56538 0.0 1009616
21:00+10se2383100 0.0 100939
13 may, thu
thu1300:00+10se2287100 0.0 100942
03:00+9se1193100 0.0 100816
06:00+9se229436 0.0 100815
09:00+14sse127674 0.0 1008430
12:00+20sse11536 0.0 1008924
15:00+21se335385 0.0 10071198
18:00+21se24570 0.1 10061130
21:00+13ese22905 0.1 100730
14 may, fri
fri1400:00+11se22922 0.1 100827
03:00+11wsw1194100 0.2 100813
06:00+11w2296100 0.0 100944
09:00+16wnw2481100 0.0 1009355
12:00+21nw235511 0.1 10101322
15:00+22sw235843 2.4 10101262
18:00+21nw116265 2.3 1010692
21:00+13ssw3592100 6.7 1012133
15 may, sat
sat1500:00+12wsw22890 0.8 101317
03:00+11wsw22871 0.8 101313
06:00+10w22865 0.0 101414
09:00+17s11666 0.0 1014236
12:00+22se3546100 0.0 10131497
15:00+23se554619 0.0 10121394
18:00+20ese465699 0.0 1011574
21:00+15e3677100 0.0 1010193